Flag for Norway Weather past 2 weeks in Trondheim, Norway

Now
37 °F

Passing clouds.


Feels Like: 33 °F
Forecast: 34 / 50 °F
Wind: 6 mph from Southeast

Location: Trondheim / Vaernes

Current Time: Apr 26, 2015 at 6:01:57 AM

Latest Report: Apr 26, 2015 at 5:20 AM


Visibility: N/A

Pressure: 29.27 "Hg

Humidity: 93%

Dew point: 36 °F

Location of TrondheimLocation

Historic Weather in Trondheim — Graph

°F

Trondheim temperature yesterday

Maximum temperature yesterday: 52 °F (at 6:50 PM)
Minimum temperature yesterday: 30 °F (at 3:50 AM)
Average temperature yesterday: 44 °F

Past Weeks' High & Low Weather Summary

 TemperatureHumidityPressure
High59 °F (Apr 11, 2:20 PM)100% (Apr 11, 4:20 AM)30.45 "Hg (Apr 11, 4:20 AM)
Low28 °F (Apr 14, 5:50 AM)34% (Apr 11, 2:20 PM)29.15 "Hg (Apr 25, 11:50 PM)
Average42 °F76%29.88 "Hg
* Reported Apr 11 4:20 AM — Apr 26 4:50 AM, Trondheim, Weather by CustomWeather, © 2015

Note: Actual official high and low records may vary slightly from our data, if they occured in-between our weather recording intervals... More about our weather records

Advertising

Trondheim weather history for previous 24 hours

 ConditionsComfort  
Time TempWeatherWind HumidityBarometerVisibility
4:50 AM
Sun, Apr 26
39 °FPassing clouds.3 mph93%29.27 "HgN/A
2:50 AM41 °FLight rain. Passing clouds.18 mph87%29.21 "HgN/A
2:20 AM43 °FRain. Partly cloudy.22 mph87%29.18 "Hg3 mi
1:50 AM52 °FLight rain. Partly cloudy.20 mph62%29.15 "HgN/A
1:20 AM50 °FPassing clouds.12 mph67%29.15 "HgN/A
12:50 AM52 °FPassing clouds.13 mph62%29.15 "HgN/A
12:20 AM50 °FPassing clouds.14 mph62%29.15 "HgN/A
11:50 PM
Sat, Apr 25
50 °FPassing clouds.8 mph62%29.15 "HgN/A
10:50 PM52 °FPassing clouds.10 mph58%29.18 "HgN/A
10:20 PM50 °FPassing clouds.8 mph62%29.18 "HgN/A
9:50 PM50 °FPartly sunny.16 mph62%29.18 "HgN/A
9:20 PM50 °FPartly sunny.16 mph62%29.18 "HgN/A
8:50 PM50 °FPartly sunny.14 mph62%29.18 "HgN/A
8:20 PM50 °FPartly sunny.15 mph62%29.21 "HgN/A
7:50 PM52 °FPartly sunny.15 mph54%29.21 "HgN/A
7:20 PM50 °FPartly sunny.15 mph58%29.24 "HgN/A
6:50 PM52 °FPartly sunny.15 mph54%29.24 "HgN/A
6:20 PM50 °FPartly sunny.13 mph58%29.27 "HgN/A
5:50 PM50 °FPartly sunny.12 mph58%29.27 "HgN/A
5:20 PM50 °FScattered clouds.13 mph58%29.30 "HgN/A
4:50 PM48 °FScattered clouds.16 mph62%29.33 "HgN/A
4:20 PM48 °FBroken clouds.16 mph62%29.33 "HgN/A
3:50 PM48 °FBroken clouds.20 mph62%29.36 "HgN/A
3:20 PM48 °FScattered clouds.16 mph62%29.36 "HgN/A
2:50 PM48 °FDrizzle. Partly sunny.15 mph62%29.39 "HgN/A
2:20 PM50 °FSunny.15 mph54%29.39 "Hg10 mi
1:50 PM50 °FSunny.13 mph58%29.39 "Hg10 mi
1:20 PM50 °FSunny.16 mph58%29.39 "Hg10 mi
12:50 PM50 °FSunny.15 mph58%29.39 "Hg10 mi
12:20 PM50 °FPassing clouds.10 mph58%29.39 "HgN/A
11:50 AM48 °FSunny.12 mph62%29.42 "Hg10 mi
11:20 AM45 °FSunny.1 mph71%29.42 "Hg10 mi
10:50 AM43 °FSunny.5 mph76%29.42 "Hg10 mi
10:20 AM39 °FPassing clouds.3 mph87%29.45 "HgN/A
9:50 AM39 °FSunny.6 mph81%29.45 "Hg10 mi
9:20 AM39 °FScattered clouds.2 mph81%29.45 "HgN/A
8:50 AM37 °FBroken clouds.5 mph87%29.47 "HgN/A
8:20 AM36 °FBroken clouds.5 mph87%29.47 "HgN/A
7:50 AM34 °FBroken clouds.3 mph87%29.47 "HgN/A
7:20 AM34 °FBroken clouds.5 mph87%29.50 "HgN/A
6:50 AM32 °FScattered clouds.5 mph93%29.50 "HgN/A
6:20 AM32 °FPassing clouds.6 mph93%29.53 "HgN/A
Weather by CustomWeather, © 2015

See weather overviewHow to use our weather pages